Flag for Netherlands Weather past 2 weeks in Nijmegen, Netherlands

Now
64 °F

Thunderstorms. Partly cloudy.


Feels Like: 64 °F
Forecast: 65 / 78 °F
Wind: 6 mph from North

Location: Volkel

Current Time: Aug 30, 2015 at 4:09:33 AM

Latest Report: Aug 30, 2015 at 3:25 AM


Visibility: N/A

Pressure: 30.04 "Hg

Humidity: 78%

Dew point: 57 °F

Location of NijmegenLocation

Historic Weather in Nijmegen — Graph

°F

Nijmegen temperature yesterday

Maximum temperature yesterday: 75 °F (at 2:55 PM)
Minimum temperature yesterday: 48 °F (at 3:55 AM)
Average temperature yesterday: 64 °F

Past Weeks' High & Low Weather Summary

 TemperatureHumidityPressure
High81 °F (Aug 21, 3:25 PM)100% (Aug 16, 3:55 AM)30.24 "Hg (Aug 16, 3:55 AM)
Low48 °F (Aug 29, 3:55 AM)32% (Aug 23, 1:55 PM)29.47 "Hg (Aug 24, 3:55 PM)
Average63 °F79%29.94 "Hg
* Reported Aug 15 2:25 AM — Aug 30 2:55 AM, Nijmegen, Weather by CustomWeather, © 2015

Note: Actual official high and low records may vary slightly from our data, if they occured in-between our weather recording intervals... More about our weather records

Advertising

Nijmegen weather history for previous 24 hours

 ConditionsComfort  
Time TempWeatherWind HumidityBarometerVisibility
2:55 AM
Sun, Aug 30
63 °FPassing clouds.8 mph83%30.04 "HgN/A
2:25 AM63 °FMild.7 mph77%30.07 "HgN/A
1:55 AM63 °FPassing clouds.6 mph83%30.09 "HgN/A
1:25 AM64 °FPartly cloudy.7 mph78%30.09 "HgN/A
12:55 AM64 °FOvercast.5 mph78%30.09 "HgN/A
12:25 AM63 °FPassing clouds.5 mph83%30.09 "HgN/A
11:55 PM
Sat, Aug 29
64 °FPartly cloudy.5 mph78%30.09 "HgN/A
10:55 PM64 °FPartly cloudy.5 mph78%30.09 "HgN/A
10:25 PM66 °FMostly cloudy.5 mph78%30.09 "HgN/A
9:55 PM64 °FPassing clouds.3 mph83%30.09 "HgN/A
9:25 PM66 °FPassing clouds.3 mph78%30.09 "HgN/A
8:55 PM68 °FPassing clouds.5 mph73%30.09 "HgN/A
8:25 PM68 °FPassing clouds.5 mph73%30.09 "HgN/A
7:55 PM70 °FPartly sunny.3 mph69%30.09 "HgN/A
7:25 PM72 °FMostly cloudy.3 mph65%30.09 "HgN/A
6:55 PM73 °FBroken clouds.5 mph61%30.09 "HgN/A
6:25 PM75 °FPassing clouds.6 mph54%30.12 "HgN/A
5:55 PM75 °FMild.6 mph54%30.12 "HgN/A
5:25 PM75 °FMild.3 mph57%30.12 "HgN/A
4:55 PM75 °FMild.5 mph54%30.12 "HgN/A
4:25 PM75 °FPartly sunny.3 mph50%30.12 "HgN/A
3:55 PM75 °FPassing clouds.3 mph50%30.12 "HgN/A
3:25 PM73 °FPartly sunny.6 mph53%30.15 "HgN/A
2:55 PM75 °FScattered clouds.2 mph50%30.15 "HgN/A
2:25 PM73 °FPassing clouds.3 mph53%30.15 "HgN/A
1:55 PM73 °FPassing clouds.5 mph50%30.15 "HgN/A
1:25 PM72 °FPartly sunny.8 mph53%30.18 "HgN/A
12:55 PM73 °FMild.2 mph53%30.18 "HgN/A
11:55 AM72 °FPassing clouds.3 mph57%30.18 "HgN/A
11:25 AM70 °FMild.3 mph64%30.18 "HgN/A
10:55 AM68 °FPassing clouds.2 mph69%30.18 "HgN/A
9:55 AM66 °FMild.1 mph73%30.21 "HgN/A
9:25 AM63 °FMild.1 mph77%30.18 "HgN/A
8:55 AM59 °FCool.2 mph88%30.18 "HgN/A
7:55 AM52 °FFog.2 mph100%30.18 "Hg4 mi
7:25 AM48 °FCool.2 mph100%30.18 "HgN/A
7:04 AM50 °FFog.1 mph94%30.18 "Hg2 mi
5:55 AM48 °FCool.1 mph100%30.18 "HgN/A
4:55 AM48 °FFog.1 mph100%30.15 "Hg4 mi
4:25 AM48 °FFog.No wind100%30.18 "Hg3 mi
4:04 AM50 °FFog.1 mph94%30.18 "Hg3 mi
Weather by CustomWeather, © 2015

See weather overviewHow to use our weather pages